| time (UTC) | temp F | wind direction | speed MPH | gust MPH | rain 1hr in | rain 24hr in | rain mn in | humidity % | barometer mb |
| 20260506233050 | 50 | 360 | 1.0 | 6.0 | 0.00 | 0.00 | 0.00 | 79 | 1011.9 |
| 20260506231545 | 51 | 360 | 3.0 | 6.0 | 0.00 | 0.00 | 0.00 | 79 | 1011.8 |
| 20260506230047 | 51 | 360 | 3.0 | 6.0 | 0.00 | 0.00 | 0.00 | 79 | 1011.9 |
| 20260506224547 | 51 | 360 | 5.0 | 11.0 | 0.00 | 0.00 | 0.00 | 80 | 1011.9 |
| 20260506223042 | 51 | 360 | 1.0 | 4.0 | 0.00 | 0.00 | 0.00 | 81 | 1011.8 |
| 20260506221551 | 51 | 360 | 1.0 | 4.0 | 0.00 | 0.00 | 0.00 | 80 | 1011.8 |
| 20260506220045 | 52 | 360 | 1.0 | 3.0 | 0.00 | 0.00 | 0.00 | 79 | 1011.6 |
| 20260506214540 | 52 | 360 | 0.0 | 0.0 | 0.00 | 0.00 | 0.00 | 78 | 1011.5 |
| 20260506213043 | 52 | 360 | 0.0 | 0.0 | 0.00 | 0.00 | 0.00 | 78 | 1011.3 |
| 20260506211544 | 52 | 360 | 0.0 | 0.0 | 0.00 | 0.00 | 0.00 | 78 | 1011.2 |
| 20260506210044 | 52 | 360 | 0.0 | 0.0 | 0.00 | 0.00 | 0.00 | 76 | 1011.1 |
| 20260506204535 | 52 | 360 | 0.0 | 0.0 | 0.00 | 0.00 | 0.00 | 76 | 1011.1 |
| 20260506203033 | 0 | 0.0 | 0.0 | 0.00 | 0.00 | 0.00 | 1011.1 | ||
| 20260506201534 | 0 | 0.0 | 0.0 | 0.00 | 0.00 | 0.00 | 1011.0 | ||
| 20260506200026 | 0 | 0.0 | 0.0 | 0.00 | 0.00 | 0.00 | 1011.0 | ||
| 20260506194519 | 52 | 360 | 0.0 | 4.0 | 0.00 | 0.00 | 0.00 | 73 | 1010.8 |
| 20260506193027 | 0 | 0.0 | 0.0 | 0.00 | 0.00 | 0.00 | 1010.7 | ||
| 20260506191513 | 53 | 360 | 1.0 | 3.0 | 0.00 | 0.00 | 0.00 | 72 | 1010.4 |
| 20260506190012 | 53 | 360 | 1.0 | 5.0 | 0.00 | 0.00 | 0.00 | 72 | 1010.3 |
| 20260506184510 | 53 | 360 | 1.0 | 6.0 | 0.00 | 0.00 | 0.00 | 71 | 1010.1 |
| 20260506183010 | 53 | 360 | 2.0 | 4.0 | 0.00 | 0.00 | 0.00 | 71 | 1010.0 |
| 20260506181517 | 0 | 0.0 | 0.0 | 0.00 | 0.00 | 0.00 | 1009.7 | ||
| 20260506180002 | 0 | 0.0 | 0.0 | 0.00 | 0.00 | 0.00 | 1009.7 | ||
| 20260506174600 | 54 | 360 | 4.0 | 7.0 | 0.00 | 0.00 | 0.00 | 70 | 1009.5 |
| 20260506173126 | 54 | 360 | 3.0 | 7.0 | 0.00 | 0.00 | 0.00 | 70 | 1009.4 |
| 20260506171558 | 0 | 0.0 | 0.0 | 0.00 | 0.00 | 0.00 | 1009.1 | ||
| 20260506170106 | 54 | 360 | 3.0 | 8.0 | 0.00 | 0.00 | 0.00 | 69 | 1008.9 |
| 20260506164553 | 54 | 360 | 3.0 | 8.0 | 0.00 | 0.00 | 0.00 | 69 | 1009.0 |
| 20260506163057 | 54 | 360 | 5.0 | 9.0 | 0.00 | 0.00 | 0.00 | 70 | 1009.0 |
| 20260506161552 | 54 | 360 | 3.0 | 11.0 | 0.00 | 0.00 | 0.00 | 71 | 1009.1 |
| 20260506160050 | 54 | 360 | 3.0 | 11.0 | 0.00 | 0.00 | 0.00 | 71 | 1009.1 |
| 20260506154607 | 54 | 360 | 6.0 | 12.0 | 0.00 | 0.00 | 0.00 | 71 | 1009.0 |
| 20260506153049 | 54 | 360 | 4.0 | 9.0 | 0.00 | 0.00 | 0.00 | 72 | 1009.1 |
| 20260506151547 | 54 | 360 | 4.0 | 9.0 | 0.00 | 0.00 | 0.00 | 72 | 1009.0 |
| 20260506150046 | 54 | 360 | 6.0 | 12.0 | 0.00 | 0.00 | 0.00 | 71 | 1009.0 |
| 20260506144552 | 54 | 360 | 4.0 | 10.0 | 0.00 | 0.00 | 0.00 | 69 | 1008.9 |
| 20260506143046 | 54 | 360 | 8.0 | 12.0 | 0.00 | 0.00 | 0.00 | 68 | 1008.9 |
| 20260506141545 | 54 | 360 | 7.0 | 14.0 | 0.00 | 0.00 | 0.00 | 67 | 1009.0 |
| 20260506140041 | 0 | 0.0 | 0.0 | 0.00 | 0.00 | 0.00 | 1008.8 | ||
| 20260506134539 | 54 | 360 | 5.0 | 12.0 | 0.00 | 0.00 | 0.00 | 66 | 1008.6 |
| 20260506133052 | 54 | 360 | 6.0 | 10.0 | 0.00 | 0.00 | 0.00 | 65 | 1008.7 |
| 20260506131538 | 55 | 360 | 9.0 | 20.0 | 0.00 | 0.00 | 0.00 | 64 | 1008.7 |
| 20260506130039 | 56 | 360 | 6.0 | 14.0 | 0.00 | 0.00 | 0.00 | 64 | 1008.6 |
| 20260506124536 | 55 | 360 | 8.0 | 16.0 | 0.00 | 0.00 | 0.00 | 61 | 1008.5 |
| 20260506123033 | 0 | 0.0 | 0.0 | 0.00 | 0.00 | 0.00 | 1008.4 | ||
| 20260506121531 | 0 | 0.0 | 0.0 | 0.00 | 0.00 | 0.00 | 1008.3 | ||
| 20260506120027 | 55 | 360 | 7.0 | 16.0 | 0.00 | 0.00 | 0.00 | 66 | 1008.1 |
| 20260506114528 | 55 | 360 | 7.0 | 12.0 | 0.00 | 0.00 | 0.00 | 66 | 1008.2 |
| 20260506113027 | 55 | 360 | 7.0 | 13.0 | 0.00 | 0.00 | 0.00 | 67 | 1008.2 |
| 20260506111526 | 55 | 360 | 7.0 | 13.0 | 0.00 | 0.00 | 0.00 | 68 | 1008.2 |
| 20260506110026 | 55 | 360 | 9.0 | 16.0 | 0.00 | 0.00 | 0.00 | 67 | 1008.1 |
| 20260506104551 | 55 | 360 | 8.0 | 14.0 | 0.00 | 0.00 | 0.00 | 67 | 1008.1 |
| 20260506103025 | 56 | 360 | 8.0 | 15.0 | 0.00 | 0.00 | 0.00 | 65 | 1008.0 |
| 20260506101524 | 56 | 360 | 6.0 | 13.0 | 0.00 | 0.00 | 0.00 | 63 | 1007.8 |
| 20260506100023 | 56 | 360 | 7.0 | 16.0 | 0.00 | 0.00 | 0.00 | 63 | 1007.8 |
| 20260506094529 | 56 | 360 | 9.0 | 16.0 | 0.00 | 0.00 | 0.00 | 64 | 1007.8 |
| 20260506093019 | 55 | 360 | 7.0 | 13.0 | 0.00 | 0.00 | 0.00 | 66 | 1007.5 |
| 20260506091518 | 55 | 360 | 7.0 | 19.0 | 0.00 | 0.00 | 0.00 | 65 | 1007.7 |
| 20260506090015 | 55 | 360 | 11.0 | 18.0 | 0.00 | 0.00 | 0.00 | 67 | 1007.6 |
| 20260506084513 | 55 | 360 | 7.0 | 16.0 | 0.00 | 0.00 | 0.00 | 72 | 1007.3 |
| 20260506083028 | 55 | 360 | 6.0 | 20.0 | 0.00 | 0.00 | 0.00 | 74 | 1007.2 |
| 20260506081509 | 54 | 360 | 7.0 | 14.0 | 0.00 | 0.00 | 0.00 | 77 | 1007.1 |
| 20260506073100 | 52 | 360 | 8.0 | 15.0 | 0.00 | 0.00 | 0.00 | 83 | 1007.0 |
| 20260506071617 | 52 | 360 | 6.0 | 14.0 | 0.00 | 0.00 | 0.00 | 84 | 1006.9 |
| 20260506061543 | 50 | 360 | 4.0 | 10.0 | 0.00 | 0.00 | 0.00 | 88 | 1006.8 |
| 20260506044533 | 48 | 360 | 1.0 | 8.0 | 0.00 | 0.00 | 0.00 | 91 | 1006.9 |
| 20260506043028 | 48 | 360 | 2.0 | 7.0 | 0.00 | 0.00 | 0.00 | 92 | 1006.8 |
| 20260506041525 | 48 | 360 | 4.0 | 8.0 | 0.00 | 0.00 | 0.00 | 92 | 1006.9 |
| 20260506040040 | 48 | 360 | 4.0 | 8.0 | 0.00 | 0.00 | 0.00 | 92 | 1006.9 |
| 20260506034524 | 48 | 360 | 3.0 | 10.0 | 0.00 | 0.00 | 0.00 | 93 | 1007.0 |
| 20260506033027 | 48 | 360 | 4.0 | 9.0 | 0.00 | 0.00 | 0.00 | 93 | 1007.0 |
| 20260506031521 | 48 | 360 | 6.0 | 12.0 | 0.00 | 0.00 | 0.00 | 93 | 1007.1 |
| 20260506030022 | 48 | 360 | 3.0 | 12.0 | 0.00 | 0.00 | 0.00 | 94 | 1007.2 |
| 20260506024527 | 48 | 360 | 7.0 | 13.0 | 0.00 | 0.00 | 0.00 | 94 | 1007.4 |
| 20260506023018 | 48 | 360 | 5.0 | 10.0 | 0.00 | 0.00 | 0.00 | 94 | 1007.5 |
| 20260506021533 | 48 | 360 | 6.0 | 11.0 | 0.00 | 0.00 | 0.00 | 94 | 1007.5 |
| 20260506020016 | 48 | 360 | 6.0 | 11.0 | 0.00 | 0.00 | 0.00 | 93 | 1007.5 |
| 20260506014521 | 48 | 360 | 7.0 | 11.0 | 0.00 | 0.00 | 0.00 | 92 | 1007.4 |
| 20260506013010 | 49 | 360 | 5.0 | 13.0 | 0.00 | 0.00 | 0.00 | 91 | 1007.5 |
| 20260506011518 | 49 | 360 | 2.0 | 12.0 | 0.00 | 0.00 | 0.00 | 89 | 1007.6 |
| 20260506010010 | 49 | 360 | 8.0 | 18.0 | 0.00 | 0.00 | 0.00 | 88 | 1007.8 |
| 20260506004505 | 50 | 360 | 6.0 | 11.0 | 0.00 | 0.00 | 0.00 | 87 | 1007.8 |
| 20260506003002 | 50 | 360 | 5.0 | 12.0 | 0.00 | 0.00 | 0.00 | 86 | 1007.9 |
| 20260506001623 | 50 | 360 | 6.0 | 9.0 | 0.00 | 0.00 | 0.00 | 86 | 1007.9 |
| 20260506000109 | 50 | 360 | 4.0 | 12.0 | 0.00 | 0.00 | 0.00 | 85 | 1008.0 |
| 20260505234612 | 50 | 360 | 5.0 | 9.0 | 0.00 | 0.00 | 0.00 | 85 | 1008.1 |